Regional Weather Roundup
Issued by NWS

Home | Current Version | Previous Version | Graphics & Text | Print | Product List | Glossary On
Versions: 1 2 3 4 5 6 7 8 9 10 11 12 13 14 15 16 17 18 19 20 21 22 23 24 25 26 27 28
000
ASUS45 KTFX 271810
RWRMT
MONTANA REGIONAL WEATHER ROUNDUP
NATIONAL WEATHER SERVICE GREAT FALLS MT
1200 PM MDT MON MAR 27 2017

NOTE: "FAIR" INDICATES FEW OR NO CLOUDS BELOW 12000 FEET WITH NO
SIGNIFICANT WEATHER AND/OR OBSTRUCTIONS TO VISIBILITY.

MTZ001>007-043-271900-
WEST OF THE DIVIDE

CITY           SKY/WX    TMP DP  RH WIND       PRES   REMARKS
KALISPELL      CLOUDY    43  40  89 S8        29.91R
MISSOULA       LGT RAIN  41  37  86 CALM      29.96R
BUTTE          CLOUDY    44  28  53 N5        29.86S
MULLAN PASS    SNOW      29  29 100 VRB3      29.91R VSB 1/4
ANACONDA         N/A     45  28  53 N3        29.86F
DEER LODGE       N/A     43  32  65 N6        29.90S
EUREKA           N/A     45  39  81 CALM      29.91R
HAMILTON         N/A     45  36  70 E5        29.94R
PLAINS           N/A     44  39  82 CALM      29.96R
RONAN            N/A     42  38  86 S8        29.97R
$$

MTZ008-052>055-271900-
SOUTHWEST MONTANA

CITY           SKY/WX    TMP DP  RH WIND       PRES   REMARKS
BOZEMAN        PTSUNNY   52  33  48 VRB6      29.85S
DILLON         CLOUDY    47  26  44 SW10      29.86R
W YELLOWSTONE  CLOUDY    36  32  87 S10G18    29.90R WCI  28
ENNIS          CLOUDY    45  27  49 CALM      29.90R
THREE FORKS      N/A     50  50 100 CALM      29.86F
TWIN BRIDGES     N/A     48  28  46 SE5       29.86F
$$

MTZ009-010-012-014-046-048-049-054-271900-
EAST SLOPES AND CENTRAL MONTANA

CITY           SKY/WX    TMP DP  RH WIND       PRES   REMARKS
CUT BANK       CLOUDY    49  29  46 W6        29.82S
GREAT FALLS    CLOUDY    54  26  34 W10       29.83R
MALMSTROM AFB  CLOUDY    52  29  41 W8        29.84S
HELENA         MOSUNNY   52  34  50 NE9       29.85S
AUGUSTA        PTSUNNY   46  26  45 W16       29.84R
BOWMANS CRNR   PTSUNNY   48  27  43 SW15      29.83R
CHOTEAU          N/A     52  27  37 SW12      29.85S
CONRAD           N/A     52  32  46 W9        29.87R
FAIRFIELD        N/A     50  26  39 SW12      29.83R
RAYNESFORD       N/A     49  27  42 NW10      29.84S
$$

MTZ011-013-016-021-045-047-050-051-271900-
NORTH CENTRAL MONTANA

CITY           SKY/WX    TMP DP  RH WIND       PRES   REMARKS
HAVRE          PTSUNNY   55  30  38 VRB6      29.83S
LEWISTOWN      PTSUNNY   49  28  44 CALM      29.84R
N BAR RANCH    CLOUDY    48  28  46 CALM      29.86S
CHINOOK          N/A     54  28  37 E8        29.84S
DENTON         PTSUNNY   51  30  45 NW5       29.80F
FORT BENTON      N/A     55  30  38 MISG        N/A
GEYSER           N/A     51  27  40 NW14G22   29.82F
GRASS RANGE    PTSUNNY   52  29  42 N5        29.80F
STANFORD         N/A     49  28  44 N5        29.83S
WINIFRED         N/A     51  31  46 W9        29.83S
$$

MTZ017>020-022>027-061-062-271900-
NORTHEAST MONTANA

CITY           SKY/WX    TMP DP  RH WIND       PRES   REMARKS
GLASGOW        CLOUDY    50  27  40 SE9       29.87R
JORDAN           N/A     51  33  50 E8        29.84R
SIDNEY         CLOUDY    55  37  50 NE6       29.89F
WOLF POINT     PTSUNNY   55  29  36 E16       29.87F
MALTA          PTSUNNY   48  39  71 E13       29.86F
PLENTYWOOD       N/A     52  23  32 E9        29.92S
POPLAR           N/A     52  28  40 E15       29.88F
SCOBEY           N/A     50  22  33 NE10      29.89S
$$

MTZ028>42-056>058-271900-
SOUTHCENTRAL AND SOUTHEAST MONTANA

CITY           SKY/WX    TMP DP  RH WIND       PRES   REMARKS
BAKER          SUNNY     57  31  37 SE17      29.88S
BILLINGS       MOSUNNY   54  31  41 VRB3      29.84F
LIVINGSTON     PTSUNNY   50  29  44 MISG      29.83F
MILES CITY     CLOUDY    56  38  50 S10       29.84F
BIG TIMBER     MOSUNNY   52  30  43 W12       29.85F
EKALAKA          N/A     54  29  38 SE12      29.86S
FORSYTH          N/A     59  36  41 CALM      29.82S
HARLOWTON      PTSUNNY   50  28  42 W10       29.83F
LAUREL           N/A     54  29  38 NE1       29.85S
$$

REGIONAL REPORTS...DAKOTAS

CITY           SKY/WX    TMP DP  RH WIND       PRES   REMARKS
WILLISTON      CLOUDY    54  24  31 E10       29.92R
MINOT          CLOUDY    42  37  82 NW6       29.94R
DICKINSON      SUNNY     55  33  43 S8        29.88S
BEACH            N/A    N/A N/A N/A MISG        N/A
TIOGA          CLOUDY    52  37  58 E12       29.93R
WATFORD CITY     N/A     52  30  43 E13       29.90F
BISMARCK       SUNNY     61  38  42 VRB3      29.93S
GRAND FORKS    CLOUDY    39  39 100 S6        30.00F FOG
FARGO          SUNNY     51  43  74 NE5       29.98F
BUFFALO SD       N/A     58  33  39 S15G23    29.82S
RAPID CITY     CLOUDY    45  41  86 SE9       29.89F
$$

REGIONAL REPORTS...WYOMING/IDAHO/WASHINGTON

CITY           SKY/WX    TMP DP  RH WIND       PRES   REMARKS
GILLETTE       SUNNY     53  33  46 SE7       29.84S
SHERIDAN       SUNNY     57  29  34 VRB6      29.83F
BUFFALO WY     PTSUNNY   56  30  37 NE7       29.85R
CODY           MOSUNNY   53  25  33 S10       29.85F
YELLOWSTONE LA   N/A     34  27  75 VRB5      29.91S
IDAHO FALLS    LGT RAIN  42  39  89 SW15      29.91R
SALMON         CLOUDY    46  34  61 N3        29.88S
BOISE          PTSUNNY   47  37  68 NW15      30.01R
SPOKANE        PTSUNNY   43  36  76 SW16      29.99R
$$

REGIONAL REPORTS...ALBERTA

CITY           SKY/WX    TMP DP  RH WIND       PRES   REMARKS
EDMONTON       CLOUDY    36  30  80 E9        29.84R WCI  29
CALGARY        MOSUNNY   50  19  29 VRB2      29.78S
LETHBRIDGE     PTSUNNY   54  27  35 W12G21    29.79F
$$

REGIONAL REPORTS...SASKATCHEWAN

CITY           SKY/WX    TMP DP  RH WIND       PRES   REMARKS
SWIFT CURRENT  SUNNY     43  34  70 E9        29.88S
REGINA         CLOUDY    34  34 100 NE5       29.97S
$$




USA.gov is the U.S. government's official web portal to all federal, state and local government web resources and services.